Warning: Javascript must be enabled to use all the features on this page!


Page Loading - Please Wait...

Click to hideNews Bulletins
Click to hide state-specific text

Texas Water Dashboard

View over 750 USGS real-time stream, lake, reservoir, precipitation, and groundwater stations in context with current weather and hazard conditions.

Two fully-autonomous Twitter feeds distribute water level and precipitation data during flooding or severe rainfall: @USGS_TexasFlood and @USGS_TexasRain.

Click to go to the Texas Water Dashboard

USGS 08195000 Frio Rv at Concan, TX

PROVISIONAL DATA SUBJECT TO REVISION

Click to hidestation-specific text
Funding for this site is provided by the cooperators / programs below:
Click to go to the Edwards Aquifer Authority web page

Edwards Aquifer Authority

Click to go to the Cooperative Water Program web page

Cooperative Water Program

 

Rainfall Disclaimer


retransmission, forecasts and summary of this location by the National Weather Service
Retransmission, forecasts and summary by the National Weather Service

National Weather Service provided floatability levels for recreational users at several locations throughout Texas.

This station managed by the San Antonio Field Unit.

Available Parameters Available Period
All 6 Available Parameters for this site
  
00010 Temperature, water 2013-07-25  2017-02-27
00045 Precipitation 2016-10-30  2017-02-27
00060 Discharge 2007-10-01  2017-02-27
00065 Gage height 2007-10-01  2017-02-27
00095 Specific cond at 25C 2013-07-02  2017-02-27
99133 NO3+NO2,water,insitu 2015-09-24  2017-02-27

Graph
Graph w/ stats
Graph w/o stats
Graph w/ (up to 3) parms
Table
Tab-separated
Days  (2)
 

  -- or --
Begin date
 

End date
 

Summary of all available data for this site
Instantaneous-data availability statement






Date / Time




Gage
height,
feet,




Dis-
charge,
ft3/s,



Precip-
itation
total,
inches,
Specif-
ic
conduc-
tance,
wat unf
uS/cm @
25 degC,



Temper-
ature,
water,
deg C,

Nitrate
+
nitrite
water,
in situ
mg/L as,
02/25/2017 00:00 CST3.89P  130P  0.00P  427P  18.4P  0.580P  
02/25/2017 00:15 CST3.88P  126P  0.00P  427P  18.3P     
02/25/2017 00:30 CST3.89P  130P  0.00P  427P  18.2P     
02/25/2017 00:45 CST3.88P  126P  0.00P  426P  18.1P     
02/25/2017 01:00 CST3.88P  126P  0.00P  426P  18.1P  0.580P  
02/25/2017 01:15 CST3.89P  130P  0.00P  426P  18.0P     
02/25/2017 01:30 CST3.89P  130P  0.00P  426P  17.9P     
02/25/2017 01:45 CST3.89P  130P  0.00P  426P  17.8P     
02/25/2017 02:00 CST3.89P  130P  0.00P  426P  17.8P  0.581P  
02/25/2017 02:15 CST3.89P  130P  0.00P  426P  17.7P     
02/25/2017 02:30 CST3.88P  126P  0.00P  426P  17.6P     
02/25/2017 02:45 CST3.88P  126P  0.00P  425P  17.6P     
02/25/2017 03:00 CST3.88P  126P  0.00P  425P  17.5P  0.584P  
02/25/2017 03:15 CST3.88P  126P  0.00P  425P  17.5P     
02/25/2017 03:30 CST3.89P  130P  0.00P  425P  17.4P     
02/25/2017 03:45 CST3.89P  130P  0.00P  425P  17.4P     
02/25/2017 04:00 CST3.89P  130P  0.00P  425P  17.3P  0.586P  
02/25/2017 04:15 CST3.88P  126P  0.00P  425P  17.2P     
02/25/2017 04:30 CST3.88P  126P  0.00P  426P  17.2P     
02/25/2017 04:45 CST3.89P  130P  0.00P  426P  17.1P     
02/25/2017 05:00 CST3.88P  126P  0.00P  426P  17.1P  0.588P  
02/25/2017 05:15 CST3.88P  126P  0.00P  426P  17.0P     
02/25/2017 05:30 CST3.89P  130P  0.00P  426P  17.0P     
02/25/2017 05:45 CST3.89P  130P  0.00P  426P  16.9P     
02/25/2017 06:00 CST3.89P  130P  0.00P  426P  16.9P  0.591P  
02/25/2017 06:15 CST3.88P  126P  0.00P  426P  16.8P     
02/25/2017 06:30 CST3.89P  130P  0.00P  426P  16.7P     
02/25/2017 06:45 CST3.89P  130P  0.00P  426P  16.7P     
02/25/2017 07:00 CST3.89P  130P  0.00P  426P  16.6P  0.592P  
02/25/2017 07:15 CST3.89P  130P  0.00P  426P  16.5P     
02/25/2017 07:30 CST3.88P  126P  0.00P  426P  16.5P     
02/25/2017 07:45 CST3.88P  126P  0.00P  426P  16.4P     
02/25/2017 08:00 CST3.89P  130P  0.00P  426P  16.3P  0.596P  
02/25/2017 08:15 CST3.88P  126P  0.00P  426P  16.3P     
02/25/2017 08:30 CST3.88P  126P  0.00P  426P  16.3P     
02/25/2017 08:45 CST3.88P  126P  0.00P  426P  16.2P     
02/25/2017 09:00 CST3.88P  126P  0.00P  427P  16.2P  0.598P  
02/25/2017 09:15 CST3.89P  130P  0.00P  427P  16.2P     
02/25/2017 09:30 CST3.88P  126P  0.00P  428P  16.2P     
02/25/2017 09:45 CST3.89P  130P  0.00P  429P  16.3P     
02/25/2017 10:00 CST3.89P  130P  0.00P  429P  16.3P  0.601P  
02/25/2017 10:15 CST3.88P  126P  0.00P  430P  16.3P     
02/25/2017 10:30 CST3.89P  130P  0.00P  431P  16.4P     
02/25/2017 10:45 CST3.89P  130P  0.00P  432P  16.4P     
02/25/2017 11:00 CST3.88P  126P  0.00P  433P  16.5P  0.609P  
02/25/2017 11:15 CST3.89P  130P  0.00P  434P  16.6P     
02/25/2017 11:30 CST3.88P  126P  0.00P  435P  16.7P     
02/25/2017 11:45 CST3.89P  130P  0.00P  436P  16.8P     
02/25/2017 12:00 CST3.89P  130P  0.00P  437P  16.9P  0.608P  
02/25/2017 12:15 CST3.89P  130P  0.00P  438P  17.0P     
02/25/2017 12:30 CST3.88P  126P  0.00P  439P  17.1P     
02/25/2017 12:45 CST3.88P  126P  0.00P  440P  17.2P     
02/25/2017 13:00 CST3.88P  126P  0.00P  441P  17.3P  0.609P  
02/25/2017 13:15 CST3.89P  130P  0.00P  442P  17.4P     
02/25/2017 13:30 CST3.88P  126P  0.00P  443P  17.6P     
02/25/2017 13:45 CST3.88P  126P  0.00P  444P  17.7P     
02/25/2017 14:00 CST3.89P  130P  0.00P  445P  17.8P  0.610P  
02/25/2017 14:15 CST3.89P  130P  0.00P  444P  17.9P     
02/25/2017 14:30 CST3.88P  126P  0.00P  444P  18.0P     
02/25/2017 14:45 CST3.89P  130P  0.00P  444P  18.1P     
02/25/2017 15:00 CST3.88P  126P  0.00P  444P  18.2P  0.607P  
02/25/2017 15:15 CST3.88P  126P  0.00P  443P  18.3P     
02/25/2017 15:30 CST3.89P  130P  0.00P  443P  18.4P     
02/25/2017 15:45 CST3.89P  130P  0.00P  442P  18.4P     
02/25/2017 16:00 CST3.88P  126P  0.00P  442P  18.5P  0.606P  
02/25/2017 16:15 CST3.88P  126P  0.00P  441P  18.6P     
02/25/2017 16:30 CST3.88P  126P  0.00P  440P  18.6P     
02/25/2017 16:45 CST3.88P  126P  0.00P  439P  18.6P     
02/25/2017 17:00 CST3.88P  126P  0.00P  439P  18.6P  0.602P  
02/25/2017 17:15 CST3.88P  126P  0.00P  438P  18.7P     
02/25/2017 17:30 CST3.88P  126P  0.00P  438P  18.6P     
02/25/2017 17:45 CST3.88P  126P  0.00P  437P  18.6P     
02/25/2017 18:00 CST3.88P  126P  0.00P  436P  18.6P  0.600P  
02/25/2017 18:15 CST3.88P  126P  0.00P  435P  18.5P     
02/25/2017 18:30 CST3.88P  126P  0.00P  437P  18.5P     
02/25/2017 18:45 CST3.88P  126P  0.00P  437P  18.4P     
02/25/2017 19:00 CST3.88P  126P  0.00P  438P  18.4P  0.599P  
02/25/2017 19:15 CST3.88P  126P  0.00P  440P  18.3P     
02/25/2017 19:30 CST3.88P  126P  0.00P  441P  18.3P     
02/25/2017 19:45 CST3.88P  126P  0.00P  442P  18.2P     
02/25/2017 20:00 CST3.87P  123P  0.00P  443P  18.2P  0.595P  
02/25/2017 20:15 CST3.88P  126P  0.00P  444P  18.1P     
02/25/2017 20:30 CST3.88P  126P  0.00P  444P  18.1P     
02/25/2017 20:45 CST3.88P  126P  0.00P  444P  18.0P     
02/25/2017 21:00 CST3.88P  126P  0.00P  445P  18.0P  0.588P  
02/25/2017 21:15 CST3.88P  126P  0.00P  445P  17.9P     
02/25/2017 21:30 CST3.88P  126P  0.00P  445P  17.8P     
02/25/2017 21:45 CST3.88P  126P  0.00P  445P  17.8P     
02/25/2017 22:00 CST3.88P  126P  0.00P  445P  17.7P  0.586P  
02/25/2017 22:15 CST3.88P  126P  0.00P  445P  17.6P     
02/25/2017 22:30 CST3.88P  126P  0.00P  445P  17.5P     
02/25/2017 22:45 CST3.88P  126P  0.00P  446P  17.4P     
02/25/2017 23:00 CST3.88P  126P  0.00P  446P  17.3P  0.589P  
02/25/2017 23:15 CST3.88P  126P  0.00P  446P  17.3P     
02/25/2017 23:30 CST3.88P  126P  0.00P  446P  17.2P     
02/25/2017 23:45 CST3.88P  126P  0.00P  446P  17.1P     
02/26/2017 00:00 CST3.87P  123P  0.00P  446P  17.0P  0.595P  
02/26/2017 00:15 CST3.88P  126P  0.00P  445P  17.0P     
02/26/2017 00:30 CST3.88P  126P  0.00P  445P  16.9P     
02/26/2017 00:45 CST3.87P  123P  0.00P  445P  16.8P     
02/26/2017 01:00 CST3.88P  126P  0.00P  446P  16.7P  0.596P  
02/26/2017 01:15 CST3.88P  126P  0.00P  446P  16.7P     
02/26/2017 01:30 CST3.88P  126P  0.00P  446P  16.6P     
02/26/2017 01:45 CST3.88P  126P  0.00P  446P  16.5P     
02/26/2017 02:00 CST3.88P  126P  0.00P  446P  16.4P  0.601P  
02/26/2017 02:15 CST3.87P  123P  0.00P  446P  16.4P     
02/26/2017 02:30 CST3.88P  126P  0.00P  446P  16.3P     
02/26/2017 02:45 CST3.88P  126P  0.00P  446P  16.2P     
02/26/2017 03:00 CST3.87P  123P  0.00P  447P  16.2P  0.599P  
02/26/2017 03:15 CST3.88P  126P  0.00P  447P  16.2P     
02/26/2017 03:30 CST3.88P  126P  0.00P  447P  16.1P     
02/26/2017 03:45 CST3.88P  126P  0.00P  447P  16.1P     
02/26/2017 04:00 CST3.87P  123P  0.00P  447P  16.1P  0.598P  
02/26/2017 04:15 CST3.87P  123P  0.00P  447P  16.0P     
02/26/2017 04:30 CST3.88P  126P  0.00P  447P  16.0P     
02/26/2017 04:45 CST3.87P  123P  0.00P  448P  16.0P     
02/26/2017 05:00 CST3.87P  123P  0.00P  448P  16.0P  0.599P  
02/26/2017 05:15 CST3.88P  126P  0.00P  448P  16.0P     
02/26/2017 05:30 CST3.88P  126P  0.00P  448P  15.9P     
02/26/2017 05:45 CST3.88P  126P  0.00P  448P  15.9P     
02/26/2017 06:00 CST3.88P  126P  0.00P  448P  15.9P  0.600P  
02/26/2017 06:15 CST3.88P  126P  0.00P  448P  15.9P     
02/26/2017 06:30 CST3.88P  126P  0.00P  448P  15.9P     
02/26/2017 06:45 CST3.88P  126P  0.00P  449P  15.8P     
02/26/2017 07:00 CST3.87P  123P  0.00P  449P  15.8P  0.600P  
02/26/2017 07:15 CST3.88P  126P  0.00P  449P  15.8P     
02/26/2017 07:30 CST3.88P  126P  0.00P  448P  15.8P     
02/26/2017 07:45 CST3.88P  126P  0.00P  448P  15.8P     
02/26/2017 08:00 CST3.87P  123P  0.00P  448P  15.8P  0.600P  
02/26/2017 08:15 CST3.88P  126P  0.00P  447P  15.8P     
02/26/2017 08:30 CST3.88P  126P  0.00P  447P  15.8P     
02/26/2017 08:45 CST3.87P  123P  0.00P  446P  15.8P     
02/26/2017 09:00 CST3.88P  126P  0.00P  446P  15.7P  0.601P  
02/26/2017 09:15 CST3.88P  126P  0.00P  446P  15.7P     
02/26/2017 09:30 CST3.88P  126P  0.00P  445P  15.7P     
02/26/2017 09:45 CST3.88P  126P  0.00P  445P  15.8P     
02/26/2017 10:00 CST3.87P  123P  0.00P  445P  15.8P  0.603P  
02/26/2017 10:15 CST3.88P  126P  0.00P  444P  15.8P     
02/26/2017 10:30 CST3.88P  126P  0.00P  445P  15.8P     
02/26/2017 10:45 CST3.88P  126P  0.00P  446P  15.8P     
02/26/2017 11:00 CST3.88P  126P  0.00P  447P  15.8P  0.602P  
02/26/2017 11:15 CST3.88P  126P  0.00P  447P  15.8P     
02/26/2017 11:30 CST3.88P  126P  0.00P  447P  15.8P     
02/26/2017 11:45 CST3.88P  126P  0.00P  448P  15.9P     
02/26/2017 12:00 CST3.88P  126P  0.00P  448P  15.9P  0.602P  
02/26/2017 12:15 CST3.88P  126P  0.00P  448P  15.9P     
02/26/2017 12:30 CST3.87P  123P  0.00P  449P  16.0P     
02/26/2017 12:45 CST3.88P  126P  0.00P  449P  16.0P     
02/26/2017 13:00 CST3.88P  126P  0.00P  449P  16.0P  0.602P  
02/26/2017 13:15 CST3.88P  126P  0.00P  449P  16.1P     
02/26/2017 13:30 CST3.88P  126P  0.00P  449P  16.1P     
02/26/2017 13:45 CST3.88P  126P  0.00P  449P  16.2P     
02/26/2017 14:00 CST3.88P  126P  0.00P  449P  16.2P  0.606P  
02/26/2017 14:15 CST3.88P  126P  0.00P  449P  16.3P     
02/26/2017 14:30 CST3.88P  126P  0.00P  449P  16.3P     
02/26/2017 14:45 CST3.88P  126P  0.00P  449P  16.4P     
02/26/2017 15:00 CST3.88P  126P  0.00P  449P  16.4P  0.607P  
02/26/2017 15:15 CST3.88P  126P  0.00P  449P  16.5P     
02/26/2017 15:30 CST3.88P  126P  0.00P  449P  16.6P     
02/26/2017 15:45 CST3.88P  126P  0.00P  449P  16.6P     
02/26/2017 16:00 CST3.88P  126P  0.00P  449P  16.7P  0.607P  
02/26/2017 16:15 CST3.87P  123P  0.00P  449P  16.8P     
02/26/2017 16:30 CST3.88P  126P  0.00P  449P  16.9P     
02/26/2017 16:45 CST3.88P  126P  0.00P  449P  16.9P     
02/26/2017 17:00 CST3.88P  126P  0.00P  449P  17.0P  0.609P  
02/26/2017 17:15 CST3.88P  126P  0.00P  449P  17.0P     
02/26/2017 17:30 CST3.88P  126P  0.00P  447P  17.1P     
02/26/2017 17:45 CST3.88P  126P  0.00P  445P  17.1P     
02/26/2017 18:00 CST3.88P  126P  0.00P  443P  17.2P  0.609P  
02/26/2017 18:15 CST3.88P  126P  0.00P  443P  17.2P     
02/26/2017 18:30 CST3.88P  126P  0.00P  442P  17.2P     
02/26/2017 18:45 CST3.88P  126P  0.00P  441P  17.2P     
02/26/2017 19:00 CST3.88P  126P  0.00P  439P  17.2P  0.609P  
02/26/2017 19:15 CST3.88P  126P  0.00P  437P  17.3P     
02/26/2017 19:30 CST3.88P  126P  0.00P  435P  17.3P     
02/26/2017 19:45 CST3.88P  126P  0.00P  433P  17.3P     
02/26/2017 20:00 CST3.88P  126P  0.00P  432P  17.2P  0.604P  
02/26/2017 20:15 CST3.88P  126P  0.00P  430P  17.2P     
02/26/2017 20:30 CST3.88P  126P  0.00P  429P  17.2P     
02/26/2017 20:45 CST3.88P  126P  0.00P  428P  17.2P     
02/26/2017 21:00 CST3.88P  126P  0.00P  427P  17.2P  0.598P  
02/26/2017 21:15 CST3.88P  126P  0.00P  426P  17.2P     
02/26/2017 21:30 CST3.88P  126P  0.00P  426P  17.2P     
02/26/2017 21:45 CST3.88P  126P  0.00P  425P  17.1P     
02/26/2017 22:00 CST3.88P  126P  0.00P  425P  17.1P  0.599P  
02/26/2017 22:15 CST3.88P  126P  0.00P  424P  17.1P     
02/26/2017 22:30 CST3.88P  126P  0.00P  426P  17.1P     
02/26/2017 22:45 CST3.87P  123P  0.00P  433P  17.0P     
02/26/2017 23:00 CST3.87P  123P  0.00P  436P  17.0P  0.596P  
02/26/2017 23:15 CST3.88P  126P  0.00P  438P  17.0P     
02/26/2017 23:30 CST3.87P  123P  0.00P  439P  17.0P     
02/26/2017 23:45 CST3.87P  123P  0.00P  440P  16.9P     
02/27/2017 00:00 CST3.87P  123P  0.00P  441P  16.9P  0.598P  
02/27/2017 00:15 CST3.87P  123P  0.00P  441P  16.9P     
02/27/2017 00:30 CST3.88P  126P  0.00P  442P  16.9P     
02/27/2017 00:45 CST3.87P  123P  0.00P  443P  16.8P     
02/27/2017 01:00 CST3.88P  126P  0.00P  443P  16.8P  0.599P  
02/27/2017 01:15 CST3.88P  126P  0.00P  444P  16.8P     
02/27/2017 01:30 CST3.87P  123P  0.00P  444P  16.8P     
02/27/2017 01:45 CST3.88P  126P  0.00P  444P  16.8P     
02/27/2017 02:00 CST3.87P  123P  0.00P  445P  16.8P  0.604P  
02/27/2017 02:15 CST3.87P  123P  0.00P  445P  16.8P     
02/27/2017 02:30 CST3.88P  126P  0.00P  446P  16.8P     
02/27/2017 02:45 CST3.88P  126P  0.00P  448P  16.8P     
02/27/2017 03:00 CST3.87P  123P  0.00P  447P  16.8P  0.604P  
02/27/2017 03:15 CST3.87P  123P  0.00P  446P  16.8P     
02/27/2017 03:30 CST3.88P  126P  0.00P  447P  16.8P     
02/27/2017 03:45 CST3.88P  126P  0.00P  443P  16.8P     
02/27/2017 04:00 CST3.87P  123P  0.00P  439P  16.8P  0.604P  
02/27/2017 04:15 CST3.87P  123P  0.00P  436P  16.8P     
02/27/2017 04:30 CST3.87P  123P  0.00P  441P  16.8P     
02/27/2017 04:45 CST3.88P  126P  0.00P  443P  16.8P     
02/27/2017 05:00 CST3.88P  126P  0.00P  445P  16.8P  0.603P  
02/27/2017 05:15 CST3.88P  126P  0.00P  446P  16.8P     
02/27/2017 05:30 CST3.87P  123P  0.00P  443P  16.8P     
02/27/2017 05:45 CST3.87P  123P  0.00P  437P  16.8P     
02/27/2017 06:00 CST3.88P  126P  0.00P  436P  16.8P  0.603P  
02/27/2017 06:15 CST3.88P  126P  0.00P  435P  16.8P     
02/27/2017 06:30 CST3.88P  126P  0.00P  434P  16.8P     
02/27/2017 06:45 CST3.87P  123P  0.00P  433P  16.8P     
02/27/2017 07:00 CST3.88P  126P  0.00P  433P  16.9P  0.605P  
02/27/2017 07:15 CST3.88P  126P  0.00P  433P  16.9P     
02/27/2017 07:30 CST3.88P  126P  0.00P  433P  16.9P     

Explanation
  P  Provisional data subject to revision.